Dewpoint
47 48 48 48 48 49 50 49 47 44 44 45 47 50 48 49 49 50 52 53 53 53 53 52 53 52 52 51 51 51 51 52 51 51 51 52 52 53
46 46 46 47 48 48 49 49 48 48 46 48 49 49 48 47 49 50 49 50 51 51 50 50 50 49 49 48 48 48 48 48 48 48 48 49 49 50
44 45 45 46 46 46 46 47 48 49 47 48 49 47 47 46 48 48 47 46 48 48 48 48 48 47 46 46 46 45 45 45 45 46 46 46 46 46
43 43 44 45 45 45 44 44 45 46 47 46 47 47 46 46 46 46 45 44 44 46 46 46 45 45 45 44 44 45 44 44 43 44 44 44 44 45
45 45 45 44 43 43 43 43 44 45 44 44 43 46 45 46 45 44 43 42 42 43 44 44 44 44 45 44 44 43 42 41 41 40 40 41 40 41
46 47 46 45 44 44 43 42 43 43 42 42 42 42 43 45 43 40 40 41 40 40 39 42 43 44 44 44 42 41 40 39 38 37 37 36 35 36
45 44 45 45 44 46 44 43 43 43 43 43 43 42 43 41 40 39 39 38 39 36 36 35 40 42 42 43 41 40 39 37 35 34 34 34 34 34
42 42 43 43 42 44 44 43 43 41 39 40 40 40 40 38 37 36 36 36 35 34 30 29 38 38 40 39 38 39 36 34 33 33 33 33 33 33
40 41 40 41 40 41 43 43 41 40 40 38 39 38 37 36 34 33 32 31 30 31 29 29 33 29 32 31 33 35 32 31 31 32 32 32 32 32
37 40 39 39 39 39 38 41 39 37 36 36 36 36 34 32 29 28 28 28 27 30 28 23 27 26 27 30 32 33 30 29 30 31 31 31 30 30
35 37 39 38 37 38 37 36 37 37 38 36 35 35 34 32 29 26 23 20 17 28 28 25 24 24 26 28 31 32 28 26 29 30 29 29 28 28
35 34 38 39 38 37 34 32 34 35 35 35 33 33 31 31 30 26 24 17 18 21 27 22 23 23 13 23 27 28 25 24 29 28 26 26 27 28
33 32 33 37 39 38 36 32 32 33 34 34 32 31 28 27 26 26 26 23 20 20 26 22 22 22 22 20 20 25 23 22 26 24 24 25 26 27
33 33 32 35 38 38 36 34 34 34 32 31 30 28 27 26 25 24 25 26 25 24 26 23 19 21 17 17 16 21 20 23 24 23 22 23 24 25
36 34 34 34 36 37 36 33 31 28 28 26 26 25 25 25 25 25 24 26 25 26 27 24 21 22 21 19 18 20 21 21 23 22 21 22 22 23
39 37 36 35 35 34 34 32 30 27 25 24 23 24 25 25 24 23 20 21 22 23 25 25 23 22 21 21 20 19 20 20 22 21 20 21 22 23
32 34 34 33 32 32 32 29 28 27 26 25 23 22 24 24 23 22 21 19 21 22 21 21 23 23 21 20 18 19 20 21 21 18 19 19 21 22
33 31 31 31 31 30 30 30 28 27 25 25 23 22 22 22 22 21 20 20 20 19 20 19 18 17 15 17 20 17 21 20 17 18 19 19 19 21
35 32 31 30 29 29 29 28 27 27 26 25 24 23 22 21 23 21 21 20 20 19 19 17 17 15 14 13 16 22 21 17 17 18 18 19 20 21
35 34 32 31 30 29 28 28 28 28 26 26 25 24 23 21 20 21 20 20 20 18 17 16 17 16 16 15 15 16 21 19 19 18 19 20 21 23
33 33 33 33 31 31 30 30 29 29 28 27 26 25 23 21 20 20 20 21 20 18 17 17 17 19 18 19 18 17 17 20 20 19 19 20 19 20
31 33 33 32 32 32 31 31 31 30 30 28 27 25 23 22 21 20 20 20 21 19 18 17 18 18 17 19 16 16 16 16 18 21 22 23 21 17
30 31 33 34 34 33 33 32 32 31 31 30 28 25 23 22 22 21 20 20 19 19 19 17 18 17 18 16 16 16 16 15 16 16 18 19 18 20
Wind_Speed
8 8 7 9 9 9 10 8 4 6 7 3 4 8 10 13 14 14 15 19 19 19 19 18 15 15 14 13 13 12 11 10 8 8 9 10 13 14
7 9 10 9 10 9 9 6 6 6 4 2 4 5 9 11 14 13 14 17 18 17 16 13 13 13 12 12 12 11 11 10 10 9 10 9 10 12
9 8 10 9 9 10 10 7 6 3 5 2 2 5 3 8 9 11 11 12 12 13 12 10 10 11 11 11 11 11 11 12 12 12 12 13 13 13
9 8 10 7 8 8 9 10 8 6 4 4 2 3 3 4 4 7 8 9 9 9 9 9 8 8 8 9 10 12 12 12 13 13 12 12 12 13
9 9 9 8 8 7 8 8 7 6 5 4 5 2 2 3 2 4 5 7 7 9 9 9 6 6 7 9 11 11 12 12 12 12 12 12 13 13
9 8 7 5 6 8 9 9 8 9 7 7 8 7 4 1 2 2 2 7 5 5 6 7 2 4 6 7 8 10 10 11 13 13 12 12 13 14
9 7 5 3 5 6 6 6 6 6 7 8 8 6 2 2 2 3 2 5 1 6 5 6 4 2 5 7 5 6 8 10 12 10 10 10 11 14
11 11 7 5 5 5 4 3 3 3 4 4 4 4 2 2 1 2 2 3 3 5 7 7 5 3 3 5 8 8 9 8 7 8 8 10 12 13
11 11 10 6 6 6 6 4 4 3 2 2 5 4 4 1 2 3 2 2 4 6 6 4 3 4 4 7 7 4 4 7 9 8 10 11 12 13
12 13 12 11 9 8 7 9 8 4 4 2 2 2 2 2 0 0 1 3 4 1 5 4 3 3 5 4 1 3 6 9 10 11 12 13 14 15
13 12 13 13 11 9 9 11 10 9 4 2 2 3 4 3 2 3 3 2 3 4 0 2 1 4 3 2 1 2 6 11 8 8 13 14 15 15
15 14 14 16 15 12 10 11 12 13 10 7 4 5 2 3 1 1 4 5 4 2 3 2 1 2 1 2 2 2 5 11 7 10 14 16 15 10
16 16 14 14 16 15 13 11 13 7 10 11 10 9 7 6 5 4 5 5 4 5 3 1 0 2 2 5 3 2 3 8 5 9 14 15 15 12
19 16 15 14 15 16 14 13 12 10 8 10 10 12 12 11 8 6 6 6 5 5 2 3 1 1 0 3 5 4 6 7 4 8 11 13 13 12
17 18 15 13 14 15 17 14 12 11 11 11 14 14 11 8 6 3 3 3 4 5 5 5 4 4 2 4 7 5 7 4 7 8 9 10 9 9
16 15 13 13 12 13 12 13 12 13 14 14 14 11 5 7 8 5 4 4 3 5 3 6 8 6 4 8 8 10 7 6 7 10 10 10 10 9
11 9 11 12 14 14 14 15 14 13 15 13 12 11 11 10 9 7 5 5 7 3 5 3 4 8 10 11 9 11 10 8 9 10 8 12 11 11
9 12 16 17 18 17 17 17 16 17 17 14 15 15 15 14 13 9 6 9 9 7 6 4 3 3 3 6 14 12 6 6 8 11 9 10 11 13
16 14 15 15 17 17 17 17 17 17 16 16 17 16 14 14 13 14 12 10 10 8 8 5 4 3 3 6 4 12 10 10 8 13 9 9 12 18
14 16 16 15 16 17 16 16 15 13 15 16 16 16 16 15 14 13 14 14 12 9 8 6 6 6 5 3 4 4 7 10 11 12 13 10 12 17
13 15 14 14 15 15 16 16 17 17 17 16 17 17 17 17 15 14 14 15 13 11 12 12 10 8 4 2 5 8 8 8 7 9 10 11 9 6
14 14 14 14 15 15 15 15 15 16 16 17 17 16 16 18 17 16 15 15 14 13 12 9 6 3 2 6 10 9 11 9 13 7 7 9 3 7
15 14 14 13 14 15 15 15 16 16 16 16 16 16 16 18 16 15 14 13 12 11 10 10 6 3 4 4 5 7 9 11 7 9 5 5 11 10
Wind_Direction
350 337 335 337 320 302 287 280 278 314 316 292 315 31 47 49 51 64 66 63 67 70 69 68 70 70 66 62 53 40 34 30 15 1 349 345 342 339
334 337 340 336 344 354 348 307 250 245 279 267 34 32 35 38 47 68 63 61 62 59 61 69 75 68 64 61 52 51 46 42 36 28 14 4 355 360
329 330 329 335 337 344 351 1 13 2 284 314 27 13 63 47 55 66 59 61 64 57 60 59 74 72 72 68 65 62 60 54 47 40 32 24 20 12
310 318 322 328 336 343 347 344 340 346 342 295 317 339 12 22 73 81 59 58 63 69 72 79 88 85 83 77 71 63 54 50 42 30 23 17 11 4
301 307 309 311 310 313 327 325 324 321 325 294 293 303 311 2 33 63 65 51 46 45 51 56 61 70 80 91 90 75 52 40 29 13 8 6 0 357
304 304 308 317 313 311 305 305 304 300 293 284 283 282 265 139 73 18 349 35 18 11 19 17 39 70 65 84 71 72 53 23 8 359 356 355 358 356
301 291 283 285 304 304 311 311 316 304 304 296 289 283 303 327 338 357 341 350 57 30 338 335 335 24 49 69 49 33 8 8 360 358 360 2 359 1
296 302 301 268 291 288 284 329 356 319 303 299 297 300 308 309 351 342 356 345 312 40 355 330 13 356 14 29 351 11 11 26 3 349 355 4 4 359
280 280 284 269 284 291 271 274 300 331 360 263 273 264 275 256 322 314 335 294 276 342 360 302 358 316 355 328 306 305 7 11 356 354 356 354 352 352
267 266 263 265 267 276 286 273 267 284 306 307 280 211 175 129 80 303 287 288 293 281 16 274 343 287 325 309 170 84 28 9 5 3 357 348 342 340
264 263 254 256 262 259 261 265 270 259 260 242 199 160 143 118 105 149 230 250 255 211 244 255 297 293 294 273 95 68 26 7 355 359 353 348 341 338
262 260 255 245 251 242 241 249 254 249 227 215 207 187 160 180 149 191 186 229 236 257 219 256 316 335 297 267 294 335 1 1 357 1 351 343 338 341
256 259 255 245 239 237 234 234 242 251 232 216 223 223 220 225 225 220 212 203 216 250 204 107 324 12 355 309 301 329 358 347 351 354 350 343 340 343
249 248 249 243 240 234 234 234 239 237 218 219 226 232 234 236 236 227 223 225 227 234 200 148 194 185 358 298 278 321 323 331 344 346 342 335 336 339
242 243 241 239 238 236 233 230 229 216 217 225 232 237 231 227 184 193 226 247 254 253 224 187 184 170 183 252 290 298 331 314 324 331 328 327 322 321
248 241 235 238 235 235 226 231 222 219 223 234 241 241 200 190 204 186 207 205 232 235 219 208 197 184 249 252 254 279 273 284 322 325 321 311 311 307
248 227 227 228 234 227 225 227 226 224 226 227 230 230 218 207 210 192 201 201 223 214 201 197 216 224 241 251 266 254 261 262 287 311 323 322 308 302
237 230 235 228 231 228 227 231 226 227 227 221 226 225 223 216 213 202 201 210 224 223 218 206 210 294 318 256 220 253 273 270 303 318 320 318 311 312
245 241 241 232 233 228 226 225 231 224 217 213 219 217 214 217 209 211 210 213 224 222 217 192 182 178 309 290 302 219 265 274 294 310 306 297 290 296
246 241 239 235 233 232 228 230 236 229 216 219 217 212 207 206 204 212 208 213 217 212 213 198 196 194 191 242 300 268 240 263 283 292 299 297 276 282
260 259 249 240 232 229 231 232 228 225 218 213 216 209 203 195 206 207 207 210 207 205 217 215 215 216 199 151 269 280 294 297 286 267 282 297 299 302
277 265 255 243 239 236 236 236 235 234 228 216 215 209 199 195 201 198 198 199 205 207 218 214 184 181 216 236 265 281 294 310 321 309 263 230 290 303
274 268 265 253 243 238 238 238 236 235 228 222 215 205 194 194 194 188 190 192 191 193 185 192 192 162 216 233 259 280 294 311 316 325 313 313 318 299